User: anonymous   Login
Location: Theydon Bois
(51.6750°N, 0.1050°E)
Time: 13:50:52
(UTC+01:00)
Language:

SL-27 R/B - Orbit

View from above orbital plane
View from above orbital plane
View from above satellite
View from above satellite

Ground track
Ground track

The orbit data is extracted from the following two-line orbital elements,

1 40354U 14084B   18199.19341574  .00000692  00000-0  18759-4 0  9996
2 40354  74.7382  35.6230 0039705 219.4502 140.3818 15.39114793200768
Epoch (UTC): 18 July 2018 04:38:31
Eccentricity: 0.0039705
inclination: 74.7382°
perigee height: 421 km
apogee height: 476 km
right ascension of ascending node: 35.6230°
argument of perigee: 219.4502°
revolutions per day: 15.39114793
mean anomaly at epoch: 140.3818°
orbit number at epoch: 20076

The dashed part of the orbit path shows where the satellite is in the earth's shadow,  

DLR